User: anonymous   Login
Location: Caltech
(34.1382°N, 118.1253°W)
Time: 05:29:52
(UTC-07:00)
Language:

Cosmos 1939 Rocket - Orbit

View from above orbital plane
View from above orbital plane
View from above satellite
View from above satellite

Ground track
Ground track

The orbit data is extracted from the following two-line orbital elements,

1 19046U 88032B   15126.10992243  .00001729  00000-0  13770-3 0  9996
2 19046 097.6177 179.4825 0042295 085.2248 275.3804 15.00992051456619
Epoch (UTC): 06 May 2015 02:38:17
Eccentricity: 0.0042295
inclination: 97.6177°
perigee height: 534 km
apogee height: 593 km
right ascension of ascending node: 179.4825°
argument of perigee: 85.2248°
revolutions per day: 15.00992051
mean anomaly at epoch: 275.3804°
orbit number at epoch: 45661

The dashed part of the orbit path shows where the satellite is in the earth's shadow,  

DLR